This is the latest recevied weather packets stored in our database for station/object WX1N. If no packets are shown the sender has not sent any weather packets the latest 10 day(s).
| Time | Temp. | Humidity | Pressure | Rain* | Wind** | Luminosity | Snow |
|---|---|---|---|---|---|---|---|
| 1777831204 | 11.67° C | 37% | 1006.1 hPa | 0 mm | - | - | - |
| 1777830903 | 12.22° C | 38% | 1006.1 hPa | 0 mm | - | - | - |
| 1777830604 | 12.22° C | 40% | 1006.1 hPa | 0 mm | - | - | - |
| 1777830303 | 11.67° C | 42% | 1006.1 hPa | 0 mm | - | - | - |
| 1777830004 | 11.11° C | 40% | 1006.1 hPa | 0 mm | - | - | - |
| 1777829704 | 11.11° C | 42% | 1006.1 hPa | 0 mm | - | - | - |
| 1777829403 | 11.11° C | 43% | 1006.1 hPa | 0 mm | - | - | - |
| 1777829104 | 11.11° C | 40% | 1006.1 hPa | 0 mm | - | - | - |
| 1777828804 | 10.56° C | 43% | 1006.1 hPa | 0 mm | - | - | - |
| 1777828504 | 10.56° C | 41% | 1006.2 hPa | 0 mm | - | - | - |
| 1777828204 | 11.11° C | 42% | 1006.2 hPa | 0 mm | - | - | - |
| 1777827903 | 11.11° C | 43% | 1006.1 hPa | 0 mm | - | - | - |
| 1777827604 | 11.11° C | 42% | 1006.2 hPa | 0 mm | - | - | - |
| 1777827303 | 11.11° C | 44% | 1006 hPa | 0 mm | - | - | - |
| 1777827004 | 11.11° C | 43% | 1006.1 hPa | 0 mm | - | - | - |
| 1777826703 | 11.11° C | 41% | 1006 hPa | 0 mm | - | - | - |
| 1777826404 | 10.56° C | 42% | 1006 hPa | 0 mm | - | - | - |
| 1777826103 | 10.56° C | 43% | 1006.1 hPa | 0 mm | - | - | - |
| 1777825803 | 10° C | 42% | 1006.2 hPa | 0 mm | - | - | - |
| 1777825504 | 10° C | 43% | 1006.2 hPa | 0 mm | - | - | - |
| 1777825203 | 10.56° C | 44% | 1006.2 hPa | 0 mm | - | - | - |
| 1777824904 | 10.56° C | 48% | 1006.4 hPa | 0 mm | - | - | - |
| 1777824603 | 11.11° C | 48% | 1006.3 hPa | 0 mm | - | - | - |
| 1777824304 | 11.11° C | 48% | 1006.4 hPa | 0 mm | - | - | - |
| 1777824004 | 10.56° C | 50% | 1006.5 hPa | 0 mm | - | - | - |
* Rain latest hour (hover to see other rain measurements)
** Current wind speed in m/s (hover to see current wind gust speed)